DLH2ER EDDM-EDDL

Flight info

Callsign DLH2ER
Flight time 0h 51m
Altitude 32000
Route GIVMI6Q GIVMI Y101 INBED DCT REKDI DCT LOHRE Z850 ARPEG/N0356F240 Z850 ADEMI T854 DOMUX DOMUX1A
Aircraft A320/M-SDE2E3FGIJ1LORWXYZ/HB1

Departure

Time 2026-05-04 17:54
Airport Munich Airport (EDDM)

Arrival

Time 2026-05-04 18:46
Airport Düsseldorf Airport (EDDL)
Time Latitude Longitude Altitude Speed Heading
2026-05-04 17:00 48.35583 11.79728 1486 ft 0 kts 83°
2026-05-04 17:45 48.35582 11.79725 1485 ft 2 kts 83°
2026-05-04 17:45 48.35579 11.79687 1482 ft 4 kts 83°
2026-05-04 17:45 48.35576 11.79646 1478 ft 4 kts 83°
2026-05-04 17:46 48.35574 11.79614 1473 ft 4 kts 75°
2026-05-04 17:46 48.35562 11.79581 1471 ft 4 kts 30°
2026-05-04 17:46 48.35540 11.79575 1477 ft 4 kts 353°
2026-05-04 17:46 48.35530 11.79577 1479 ft 0 kts 353°
2026-05-04 17:49 48.35563 11.79571 1471 ft 13 kts 353°
2026-05-04 17:49 48.35696 11.79548 1478 ft 22 kts 353°
2026-05-04 17:49 48.35834 11.79524 1485 ft 19 kts 353°
2026-05-04 17:49 48.35959 11.79502 1474 ft 13 kts 353°
2026-05-04 17:50 48.36054 11.79486 1485 ft 15 kts 353°
2026-05-04 17:50 48.36114 11.79577 1485 ft 14 kts 86°
2026-05-04 17:50 48.36126 11.79735 1477 ft 16 kts 83°
2026-05-04 17:50 48.36138 11.79912 1476 ft 18 kts 84°
2026-05-04 17:51 48.36154 11.80108 1480 ft 20 kts 81°
2026-05-04 17:51 48.36169 11.80323 1481 ft 22 kts 83°
2026-05-04 17:51 48.36195 11.80549 1476 ft 19 kts 70°
2026-05-04 17:51 48.36283 11.80580 1485 ft 13 kts 20°
2026-05-04 17:52 48.36310 11.80726 1479 ft 20 kts 84°
2026-05-04 17:52 48.36327 11.80945 1482 ft 22 kts 82°
2026-05-04 17:52 48.36352 11.81178 1475 ft 22 kts 57°
2026-05-04 17:52 48.36444 11.81101 1478 ft 19 kts 295°
2026-05-04 17:53 48.36496 11.80910 1475 ft 21 kts 294°
2026-05-04 17:53 48.36551 11.80698 1485 ft 23 kts 283°
2026-05-04 17:53 48.36560 11.80450 1483 ft 26 kts 264°
2026-05-04 17:53 48.36518 11.79909 1481 ft 88 kts 263°
2026-05-04 17:54 48.36424 11.78690 1482 ft 147 kts 263°
2026-05-04 17:54 48.36331 11.77163 2124 ft 136 kts 267°
2026-05-04 17:54 48.36256 11.75723 2578 ft 142 kts 265°
2026-05-04 17:54 48.36134 11.74147 2782 ft 163 kts 264°
2026-05-04 17:55 48.35986 11.72301 2904 ft 192 kts 264°
2026-05-04 17:55 48.35816 11.70202 3102 ft 214 kts 263°
2026-05-04 17:55 48.35867 11.67884 3303 ft 231 kts 287°
2026-05-04 17:55 48.36624 11.65662 3568 ft 246 kts 302°
2026-05-04 17:56 48.37551 11.63419 3889 ft 262 kts 302°
2026-05-04 17:56 48.38213 11.61818 4156 ft 270 kts 302°
2026-05-04 17:56 48.39209 11.59395 4725 ft 275 kts 302°
2026-05-04 17:56 48.40219 11.56922 5653 ft 278 kts 301°
2026-05-04 17:57 48.41233 11.54427 6648 ft 281 kts 300°
2026-05-04 17:57 48.42253 11.51910 7615 ft 283 kts 299°
2026-05-04 17:57 48.43267 11.49406 8570 ft 285 kts 298°
2026-05-04 17:57 48.44319 11.46851 9539 ft 289 kts 301°
2026-05-04 17:58 48.45717 11.44572 10426 ft 298 kts 317°
2026-05-04 17:58 48.47503 11.42923 11022 ft 317 kts 334°
2026-05-04 17:58 48.49749 11.42027 11416 ft 341 kts 348°
2026-05-04 17:58 48.52115 11.41411 12121 ft 348 kts 348°
2026-05-04 17:59 48.54517 11.40773 12911 ft 353 kts 348°
2026-05-04 17:59 48.56958 11.40114 13705 ft 358 kts 348°
2026-05-04 17:59 48.61909 11.38758 15141 ft 365 kts 347°
2026-05-04 18:00 48.64422 11.38063 15874 ft 368 kts 347°
2026-05-04 18:00 48.66950 11.37362 16599 ft 371 kts 347°
2026-05-04 18:00 48.69458 11.36407 17335 ft 372 kts 337°
2026-05-04 18:00 48.71794 11.34760 18052 ft 371 kts 326°
2026-05-04 18:01 48.73949 11.32607 18653 ft 373 kts 323°
2026-05-04 18:01 48.76106 11.30411 18872 ft 373 kts 323°
2026-05-04 18:01 48.78264 11.28222 18937 ft 373 kts 323°
2026-05-04 18:02 48.82575 11.23864 18952 ft 372 kts 323°
2026-05-04 18:02 48.84796 11.21922 18946 ft 375 kts 332°
2026-05-04 18:02 48.87278 11.20519 18954 ft 376 kts 339°
2026-05-04 18:02 48.89758 11.19270 18954 ft 376 kts 339°
2026-05-04 18:03 48.92246 11.18012 18949 ft 375 kts 339°
2026-05-04 18:03 48.94722 11.16755 19014 ft 377 kts 339°
2026-05-04 18:03 48.97219 11.15480 19640 ft 380 kts 339°
2026-05-04 18:03 48.99731 11.14194 20270 ft 383 kts 339°
2026-05-04 18:04 49.02266 11.12897 20877 ft 386 kts 339°
2026-05-04 18:04 49.04822 11.11590 21467 ft 390 kts 339°
2026-05-04 18:04 49.10013 11.08940 22640 ft 397 kts 339°
2026-05-04 18:05 49.12651 11.07593 23223 ft 401 kts 339°
2026-05-04 18:05 49.15278 11.06251 23743 ft 405 kts 339°
2026-05-04 18:05 49.17957 11.04884 24232 ft 408 kts 339°
2026-05-04 18:05 49.20692 11.03485 24736 ft 410 kts 338°
2026-05-04 18:06 49.26099 11.00707 25687 ft 415 kts 338°
2026-05-04 18:06 49.28876 10.99271 26162 ft 417 kts 338°
2026-05-04 18:06 49.31592 10.97864 26603 ft 419 kts 338°
2026-05-04 18:07 49.34365 10.96419 27042 ft 421 kts 336°
2026-05-04 18:07 49.37057 10.94514 27473 ft 419 kts 326°
2026-05-04 18:07 49.39454 10.91991 27899 ft 418 kts 317°
2026-05-04 18:07 49.41538 10.88900 28330 ft 416 kts 307°
2026-05-04 18:08 49.43334 10.85504 28729 ft 417 kts 305°
2026-05-04 18:08 49.45160 10.82020 29132 ft 419 kts 306°
2026-05-04 18:08 49.47000 10.78529 29521 ft 422 kts 306°
2026-05-04 18:08 49.48860 10.75014 29913 ft 424 kts 306°
2026-05-04 18:09 49.52626 10.67886 30551 ft 429 kts 306°
2026-05-04 18:09 49.56369 10.60754 31147 ft 433 kts 305°
2026-05-04 18:10 49.58265 10.57127 31439 ft 435 kts 305°
2026-05-04 18:10 49.60165 10.53487 31764 ft 436 kts 305°
2026-05-04 18:10 49.62064 10.49844 31948 ft 435 kts 305°
2026-05-04 18:10 49.63930 10.46270 31971 ft 420 kts 305°
2026-05-04 18:11 49.65720 10.42816 31974 ft 405 kts 304°
2026-05-04 18:11 49.67379 10.39361 31972 ft 398 kts 301°
2026-05-04 18:11 49.70455 10.32323 31971 ft 394 kts 299°
2026-05-04 18:12 49.73456 10.25262 31969 ft 393 kts 299°
2026-05-04 18:12 49.76506 10.18244 31971 ft 393 kts 300°
2026-05-04 18:13 49.79586 10.11254 31971 ft 393 kts 300°
2026-05-04 18:14 49.84187 10.00766 31969 ft 392 kts 300°
2026-05-04 18:14 49.87235 9.93760 31967 ft 392 kts 299°
2026-05-04 18:15 49.93330 9.79734 31970 ft 392 kts 299°
2026-05-04 18:16 49.96365 9.72710 31957 ft 392 kts 299°
2026-05-04 18:16 49.99405 9.65649 31979 ft 397 kts 299°
2026-05-04 18:17 50.02543 9.58312 31987 ft 420 kts 299°
2026-05-04 18:17 50.04173 9.54492 31975 ft 430 kts 299°
2026-05-04 18:17 50.07995 9.47022 31976 ft 455 kts 314°
2026-05-04 18:18 50.10473 9.43886 31988 ft 463 kts 317°
2026-05-04 18:18 50.15528 9.37533 31976 ft 469 kts 316°
2026-05-04 18:19 50.23116 9.27895 31983 ft 470 kts 316°
2026-05-04 18:19 50.28187 9.21443 31988 ft 470 kts 316°
2026-05-04 18:20 50.33246 9.14977 31985 ft 470 kts 316°
2026-05-04 18:20 50.38309 9.08473 31984 ft 470 kts 316°
2026-05-04 18:21 50.43367 9.01987 31995 ft 470 kts 316°
2026-05-04 18:21 50.48438 8.95496 31991 ft 470 kts 316°
2026-05-04 18:22 50.53496 8.88986 31989 ft 470 kts 316°
2026-05-04 18:22 50.58661 8.82663 32000 ft 471 kts 318°
2026-05-04 18:23 50.63904 8.76483 31998 ft 471 kts 318°
2026-05-04 18:23 50.66525 8.73385 31717 ft 471 kts 318°
2026-05-04 18:23 50.69114 8.70300 31445 ft 460 kts 317°
2026-05-04 18:24 50.71619 8.67295 31194 ft 444 kts 317°
2026-05-04 18:24 50.74033 8.64379 30943 ft 431 kts 317°
2026-05-04 18:24 50.76396 8.61503 30354 ft 428 kts 316°
2026-05-04 18:24 50.78737 8.58641 29814 ft 423 kts 316°
2026-05-04 18:25 50.81047 8.55820 29340 ft 418 kts 317°
2026-05-04 18:25 50.83346 8.53022 28872 ft 414 kts 317°
2026-05-04 18:25 50.85613 8.50268 28430 ft 411 kts 317°
2026-05-04 18:25 50.87759 8.47340 28112 ft 402 kts 308°
2026-05-04 18:26 50.89644 8.44150 27844 ft 401 kts 308°
2026-05-04 18:26 50.91566 8.40893 27568 ft 399 kts 308°
2026-05-04 18:26 50.93434 8.37719 27309 ft 397 kts 308°
2026-05-04 18:26 50.95304 8.34537 26817 ft 393 kts 308°
2026-05-04 18:27 50.97186 8.31328 26294 ft 391 kts 308°
2026-05-04 18:27 50.99005 8.28222 25793 ft 388 kts 308°
2026-05-04 18:27 51.00857 8.25057 25292 ft 385 kts 308°
2026-05-04 18:27 51.02653 8.21986 24801 ft 383 kts 309°
2026-05-04 18:28 51.04458 8.18896 24323 ft 380 kts 309°
2026-05-04 18:28 51.06274 8.15784 23833 ft 378 kts 309°
2026-05-04 18:28 51.08027 8.12768 23338 ft 376 kts 309°
2026-05-04 18:28 51.09815 8.09680 22785 ft 373 kts 309°
2026-05-04 18:29 51.11568 8.06653 22265 ft 371 kts 309°
2026-05-04 18:29 51.13314 8.03634 21770 ft 369 kts 309°
2026-05-04 18:29 51.15048 8.00634 21250 ft 368 kts 309°
2026-05-04 18:29 51.16754 7.97678 20757 ft 366 kts 309°
2026-05-04 18:30 51.20195 7.91735 19789 ft 363 kts 309°
2026-05-04 18:30 51.21898 7.88784 19331 ft 362 kts 309°
2026-05-04 18:30 51.23596 7.85833 18866 ft 360 kts 309°
2026-05-04 18:31 51.25291 7.82881 18430 ft 359 kts 309°
2026-05-04 18:31 51.26925 7.80028 17970 ft 358 kts 309°
2026-05-04 18:31 51.28598 7.77105 17499 ft 355 kts 309°
2026-05-04 18:31 51.30247 7.74227 17330 ft 345 kts 309°
2026-05-04 18:32 51.31840 7.71448 17185 ft 334 kts 309°
2026-05-04 18:32 51.33395 7.68732 16886 ft 329 kts 309°
2026-05-04 18:32 51.34929 7.66037 16531 ft 327 kts 309°
2026-05-04 18:32 51.36371 7.63497 16186 ft 325 kts 309°
2026-05-04 18:33 51.37848 7.60766 15836 ft 321 kts 301°
2026-05-04 18:33 51.38709 7.57556 15492 ft 312 kts 277°
2026-05-04 18:33 51.38683 7.54153 15128 ft 304 kts 257°
2026-05-04 18:33 51.38228 7.50853 14754 ft 304 kts 254°
2026-05-04 18:34 51.37728 7.47573 14395 ft 303 kts 253°
2026-05-04 18:34 51.37223 7.44304 14056 ft 302 kts 253°
2026-05-04 18:34 51.36718 7.41051 13710 ft 301 kts 253°
2026-05-04 18:34 51.36193 7.37820 13327 ft 299 kts 249°
2026-05-04 18:35 51.35246 7.34959 13173 ft 287 kts 235°
2026-05-04 18:35 51.34150 7.32356 13050 ft 278 kts 233°
2026-05-04 18:35 51.33073 7.29850 12905 ft 269 kts 233°
2026-05-04 18:35 51.32030 7.27428 12641 ft 259 kts 233°
2026-05-04 18:36 51.31014 7.25070 12219 ft 257 kts 233°
2026-05-04 18:36 51.30015 7.22760 11958 ft 255 kts 233°
2026-05-04 18:36 51.28995 7.20403 11671 ft 254 kts 233°
2026-05-04 18:36 51.28007 7.18085 11374 ft 253 kts 238°
2026-05-04 18:37 51.27509 7.15484 11083 ft 255 kts 266°
2026-05-04 18:37 51.27879 7.12764 10777 ft 258 kts 296°
2026-05-04 18:37 51.29061 7.10613 10455 ft 262 kts 326°
2026-05-04 18:37 51.30759 7.09623 10140 ft 263 kts 356°
2026-05-04 18:38 51.32523 7.10021 9812 ft 261 kts 19°
2026-05-04 18:38 51.34224 7.11063 9445 ft 261 kts 23°
2026-05-04 18:38 51.35896 7.12183 9089 ft 260 kts 23°
2026-05-04 18:38 51.37560 7.13314 8741 ft 259 kts 23°
2026-05-04 18:39 51.39214 7.14450 8119 ft 262 kts 23°
2026-05-04 18:39 51.40949 7.15651 7258 ft 282 kts 23°
2026-05-04 18:39 51.42810 7.16749 6270 ft 290 kts
2026-05-04 18:39 51.44793 7.16572 5567 ft 282 kts 340°
2026-05-04 18:40 51.45957 7.15651 5226 ft 274 kts 321°
2026-05-04 18:40 51.47139 7.13349 4725 ft 268 kts 289°
2026-05-04 18:40 51.47316 7.10645 4244 ft 262 kts 256°
2026-05-04 18:40 51.46512 7.08230 3762 ft 259 kts 222°
2026-05-04 18:41 51.45019 7.06865 3389 ft 253 kts 201°
2026-05-04 18:41 51.43432 7.05744 3137 ft 245 kts 210°
2026-05-04 18:41 51.42179 7.04002 2999 ft 233 kts 229°
2026-05-04 18:41 51.41210 7.02013 3012 ft 228 kts 232°
2026-05-04 18:42 51.40251 6.99948 3008 ft 227 kts 232°
2026-05-04 18:42 51.39317 6.97958 3002 ft 227 kts 231°
2026-05-04 18:42 51.38354 6.95919 2927 ft 227 kts 232°
2026-05-04 18:42 51.37421 6.93946 2675 ft 223 kts 231°
2026-05-04 18:43 51.36479 6.91954 2374 ft 220 kts 231°
2026-05-04 18:43 51.35562 6.90018 2086 ft 214 kts 232°
2026-05-04 18:43 51.34686 6.88168 1811 ft 204 kts 231°
2026-05-04 18:43 51.33846 6.86395 1554 ft 197 kts 231°
2026-05-04 18:44 51.33041 6.84697 1280 ft 184 kts 231°
2026-05-04 18:44 51.32545 6.83653 1101 ft 173 kts 231°
2026-05-04 18:44 51.31653 6.81772 819 ft 147 kts 231°
2026-05-04 18:44 51.31061 6.80528 624 ft 137 kts 230°
2026-05-04 18:45 51.30493 6.79344 406 ft 133 kts 231°
2026-05-04 18:45 51.29945 6.78183 247 ft 132 kts 230°
2026-05-04 18:45 51.29395 6.77029 140 ft 126 kts 229°
2026-05-04 18:45 51.28926 6.76072 133 ft 88 kts 234°
2026-05-04 18:46 51.28712 6.75716 128 ft 23 kts 202°
2026-05-04 18:46 51.28558 6.75694 122 ft 23 kts 164°
2026-05-04 18:46 51.28446 6.75791 125 ft 12 kts 143°
2026-05-04 18:46 51.28420 6.75825 126 ft 0 kts 143°
2026-05-04 18:48 51.28408 6.75840 127 ft 5 kts 142°
2026-05-04 18:48 51.28343 6.75922 126 ft 13 kts 142°